EW1858 Weather Reports


time (UTC)temp
F
wind
direction
speed
knots
gust
knots
rain 1hr
in
rain 24hr
in
rain mn
in
humidity
%
barometer
mb
20260503200025 59 217 3.5 10.4 0.00 0.00 0.00 35 1013.2
20260503194519 60 152 5.2 10.4 0.00 0.00 0.00 35 1013.5
20260503193015 59 297 5.2 12.2 0.00 0.00 0.00 36 1013.5
20260503191519 60 206 2.6 9.6 0.00 0.00 0.00 37 1013.9
20260503190010 60 138 2.6 8.7 0.00 0.00 0.00 39 1014.0
20260503184505 59 120 5.2 10.4 0.00 0.00 0.00 38 1014.3
20260503183004 58 249 2.6 13.9 0.00 0.00 0.00 38 1014.2
20260503181503 58 125 5.2 12.2 0.00 0.00 0.00 39 1014.4
20260503180003 58 101 5.2 10.4 0.00 0.00 0.00 38 1014.4
20260503174529 58 121 2.6 8.7 0.00 0.00 0.00 39 1014.4
20260503173027 57 145 2.6 7.0 0.00 0.00 0.00 40 1014.6
20260503171555 56 115 2.6 7.0 0.00 0.00 0.00 40 1014.8
20260503081534 37 164 2.6 7.0 0.00 0.00 0.00 72 1014.8
20260503071526 37 30 1.7 2.6 0.00 0.00 0.00 72 1014.3
20260503054553 39 131 0.9 3.5 0.00 0.00 0.00 73 1014.4
20260503053046 39 195 0.9 6.1 0.00 0.00 0.00 73 1014.3
20260503051543 39 137 0.0 2.6 0.00 0.00 0.00 73 1014.2
20260503050042 39 121 0.9 3.5 0.00 0.00 0.00 73 1014.4
20260503044542 39 255 0.0 0.0 0.00 0.00 0.00 75 1014.6
20260503043035 40 273 0.0 1.7 0.00 0.00 0.00 70 1014.4
20260503041532 41 286 1.7 4.3 0.00 0.00 0.00 71 1014.5
20260503040035 41 155 0.9 3.5 0.00 0.00 0.00 71 1014.6
20260503034535 42 159 0.9 2.6 0.00 0.00 0.00 71 1014.4
20260503033123 42 222 1.7 4.3 0.00 0.00 0.00 70 1014.4
20260503031558 42 191 0.0 4.3 0.00 0.00 0.00 72 1014.7
20260503030023 42 148 0.9 3.5 0.00 0.00 0.00 71 1014.8
20260503024520 42 171 0.0 5.2 0.00 0.00 0.00 72 1014.9
20260503023115 42 136 0.0 3.5 0.00 0.00 0.00 72 1014.9
20260503021551 43 319 1.7 12.2 0.00 0.00 0.00 71 1014.9
20260503020047 43 150 0.0 1.7 0.00 0.00 0.00 71 1014.7
20260503014543 43 238 1.7 5.2 0.00 0.00 0.00 70 1014.7
20260503013040 43 200 0.9 4.3 0.00 0.00 0.00 70 1014.7
20260503011541 43 149 1.7 3.5 0.00 0.00 0.00 68 1014.5
20260503010035 44 151 0.9 6.1 0.00 0.00 0.00 68 1014.3
20260503004523 44 252 2.6 6.1 0.00 0.00 0.00 67 1014.2
20260503003020 44 152 0.9 5.2 0.00 0.00 0.00 69 1014.1
20260503001519 44 120 1.7 7.8 0.00 0.00 0.00 68 1014.0
20260503000017 45 186 0.0 2.6 0.00 0.00 0.00 66 1013.9
20260502234516 45 254 1.7 6.1 0.00 0.00 0.00 65 1013.7
20260502231516 46 224 2.6 12.2 0.00 0.00 0.00 64 1013.6
20260502230013 47 149 0.9 12.2 0.00 0.00 0.00 65 1013.4
20260502224510 47 236 2.6 4.3 0.00 0.00 0.00 63 1013.3
20260502221601 49 233 0.9 5.2 0.00 0.00 0.00 60 1013.1
20260502220049 49 113 0.9 7.0 0.00 0.00 0.00 59 1012.9
20260502214554 50 203 2.6 7.8 0.00 0.00 0.00 57 1012.8
20260502211547 49 210 1.7 9.6 0.00 0.00 0.00 57 1012.7
20260502210045 50 258 1.7 5.2 0.00 0.00 0.00 58 1012.2
20260502204549 51 232 0.0 3.5 0.00 0.00 0.00 56 1012.0
20260502203044 50 280 0.9 2.6 0.00 0.00 0.00 58 1012.3
20260502201533 50 300 0.9 5.2 0.00 0.00 0.00 58 1012.5